Weather History for Cahokia, IL

Change the Weather History Date:

Saturday, February 2, 2013

  Actual Average Record
Temperature  
Mean Temperature 35 °F -  
Max Temperature 42 °F 36 °F 66 °F (2003)
Min Temperature 28 °F 24 °F -4 °F (1951)
Degree Days  
Heating Degree Days 30    
Moisture  
Dew Point 23 °F    
Average Humidity 68    
Maximum Humidity 100    
Minimum Humidity 43    
Precipitation  
Precipitation 0.06 in - - ()
Sea Level Pressure  
Sea Level Pressure 30.12 in    
Wind  
Wind Speed 8 mph (West)    
Max Wind Speed 22 mph    
Max Gust Speed 30 mph    
Visibility 7 miles    
Events Snow    
Averages and records for this station are not official NWS values.
T = Trace of Precipitation, MM = Missing Value Source: NWS Daily Summary

Daily Weather History Graph

Daily Weather History Graph

Search for Another Location

Airport:

Trip Planner

Search our weather history database for the weather conditions in past years. The results will help you decide how hot, cold, wet, or windy it might be!

Date:

Astronomy

Feb. 02, 2013 Rise Set
Actual Time 7:05 AM CST 5:24 PM CST
Civil Twilight 6:37 AM CST 5:52 PM CST
Nautical Twilight 6:05 AM CST 6:23 PM CST
Astronomical Twilight 5:34 AM CST 6:54 PM CST
Moon No Moon Rise 10:21 AM CST
Length of Visible Light 11h 14m
Length of Day
10h 19m
Waning Gibbous, 59% of the Moon is Illuminated
Feb 2
Waning Gibbous
Feb 3
Last Quarter
Feb 10
New
Feb 17
First Quarter
Feb 25
Full

Hourly Weather History & Observations

Time (CST) Temp. Windchill Dew Point Humidity Pressure Visibility Wind Dir Wind Speed Gust Speed Precip Events Conditions
12:53 AM 28.0 °F 20.8 °F 12.9 °F 53% 30.24 in 10.0 mi South 6.9 mph - N/A   Overcast
1:53 AM 28.0 °F 18.6 °F 12.0 °F 51% 30.21 in 10.0 mi South 10.4 mph - N/A   Overcast
3:53 AM 30.0 °F 21.7 °F 10.0 °F 43% 30.16 in 10.0 mi SSW 9.2 mph 17.3 mph N/A   Clear
4:53 AM 30.0 °F 22.4 °F 12.0 °F 47% 30.15 in 10.0 mi SSW 8.1 mph - N/A   Scattered Clouds
5:53 AM 30.0 °F 24.1 °F 14.0 °F 51% 30.13 in 10.0 mi SSW 5.8 mph - N/A   Mostly Cloudy
6:53 AM 30.0 °F 24.1 °F 15.1 °F 54% 30.13 in 10.0 mi SSW 5.8 mph - N/A   Overcast
7:53 AM 30.9 °F 24.3 °F 16.0 °F 54% 30.12 in 10.0 mi SSW 6.9 mph - N/A   Overcast
8:53 AM 32.0 °F 25.6 °F 17.1 °F 54% 30.12 in 10.0 mi SW 6.9 mph - N/A   Overcast
9:53 AM 35.1 °F 26.9 °F 18.0 °F 50% 30.12 in 10.0 mi West 11.5 mph - N/A   Mostly Cloudy
10:53 AM 37.9 °F 30.5 °F 19.9 °F 48% 30.12 in 10.0 mi WNW 11.5 mph 21.9 mph N/A   Clear
11:53 AM 39.0 °F 30.3 °F 23.0 °F 53% 30.10 in 10.0 mi WNW 16.1 mph - N/A   Clear
12:53 PM 42.1 °F 34.5 °F 21.9 °F 45% 30.09 in 10.0 mi WNW 15.0 mph - N/A   Clear
2:53 PM 41.0 °F 31.4 °F 26.1 °F 55% 30.09 in 10.0 mi NW 21.9 mph - N/A   Mostly Cloudy
3:53 PM 39.9 °F 31.4 °F 25.0 °F 55% 30.12 in 10.0 mi West 16.1 mph 21.9 mph N/A   Overcast
4:53 PM 39.0 °F 29.0 °F 26.1 °F 60% 30.12 in 10.0 mi WNW 20.7 mph 29.9 mph N/A   Overcast
5:53 PM 37.0 °F 27.7 °F 24.1 °F 59% 30.14 in 10.0 mi WNW 16.1 mph 25.3 mph N/A   Mostly Cloudy
6:53 PM 36.0 °F 28.0 °F 24.1 °F 62% 30.15 in 10.0 mi WNW 11.5 mph 20.7 mph N/A   Overcast
7:53 PM 35.1 °F 26.9 °F 24.1 °F 64% 30.15 in 10.0 mi WNW 11.5 mph - N/A   Scattered Clouds
8:53 PM 34.0 °F 29.8 °F 25.0 °F 70% 30.14 in 10.0 mi WNW 4.6 mph - N/A   Overcast
9:53 PM 34.0 °F 31.0 °F 25.0 °F 70% 30.11 in 10.0 mi WNW 3.5 mph - N/A   Overcast
10:30 PM 33.8 °F 27.7 °F 26.6 °F 75% 30.10 in 2.5 mi NW 6.9 mph - 0.00 in Snow Light Snow
10:38 PM 32.0 °F 26.4 °F 28.4 °F 87% 30.10 in 1.0 mi WNW 5.8 mph - 0.01 in Snow Light Snow
10:50 PM 32.0 °F 28.7 °F 28.4 °F 87% 30.10 in 3.0 mi NW 3.5 mph - 0.01 in Snow Light Snow
10:53 PM 32.0 °F 28.7 °F 30.0 °F 92% 30.11 in 4.0 mi NNW 3.5 mph - 0.01 in Snow Light Snow
10:59 PM 32.0 °F - 30.2 °F 93% 30.09 in 1.8 mi Calm Calm - 0.00 in Snow Light Snow
11:12 PM 32.0 °F - 30.2 °F 93% 30.09 in 0.8 mi Calm Calm - 0.02 in Snow Light Snow
11:18 PM 30.2 °F - 30.2 °F 100% 30.08 in 1.0 mi Calm Calm - 0.03 in Snow Light Snow
11:28 PM 30.2 °F - 30.2 °F 100% 30.08 in 2.0 mi Calm Calm - 0.03 in Snow Light Snow
11:32 PM 30.2 °F - 30.2 °F 100% 30.07 in 1.5 mi Calm Calm - 0.03 in Snow Light Snow
11:48 PM 30.2 °F - 30.2 °F 100% 30.07 in 1.2 mi Calm Calm - 0.04 in Snow Light Snow
11:53 PM 30.9 °F - 30.0 °F 96% 30.08 in 0.8 mi Calm Calm - 0.05 in Snow Light Snow